Regional Weather Roundup
Issued by NWS Charleston, SC

Home | Current Version | Previous Version | Text Only | Print | Product List | Glossary On
Versions: 1 2 3 4 5 6 7 8 9 10 11 12 13 14 15 16 17 18 19 20 21 22 23 24 25 26 27 28 29 30 31 32 33 34 35 36 37 38 39 40 41 42 43 44 45 46 47 48 49 50
000
ASUS42 KCHS 271526
RWRCHS

REGIONAL WEATHER ROUNDUP
NATIONAL WEATHER SERVICE CHARLESTON SC
1100 AM EDT MON APR 27 2015

NOTE: "FAIR" INDICATES FEW OR NO CLOUDS BELOW 12,000 FEET WITH NO
SIGNIFICANT WEATHER AND/OR OBSTRUCTIONS TO VISIBILITY.

NOT ALL STATIONS ARE QUALITY CONTROLLED BY THE NATIONAL
WEATHER SERVICE. USE DATA WITH CAUTION...ESPECIALLY
DEWPOINT OBSERVATIONS.

SCZ027-030-031-034>040-042>050-271600-
...SOUTHEAST SOUTH CAROLINA...

CITY           SKY/WX    TMP DP  RH WIND       PRES   REMARKS
N CHARLESTON   MOSUNNY   64  49  57 N13       29.86R
WATERFRONT PRK NOT AVBL
MOUNT PLEASANT FAIR      63  52  67 MISG      29.86R
PINOPOLIS      NOT AVBL
MONCKS CORNER  FAIR      63  48  59 N8        29.87R
SUMMERVILLE    FAIR      63  52  67 NW10      29.87S
BEAUFORT MCAS  MOSUNNY   65  51  60 NW5       29.86R
BEAUFORT ARPT  FAIR      64  52  63 NE3       29.85F
HILTON HEAD IS MOSUNNY   63  54  72 NW5       29.88R
WALTERBORO     PTSUNNY   63  46  55 N9        29.88R
ALLENDALE      PTSUNNY   63  50  63 VRB6      29.88R

...SOUTHERN MIDLANDS AND PEE DEE...

CITY           SKY/WX    TMP DP  RH WIND       PRES   REMARKS
GEORGETOWN     NOT AVBL
KINGSTREE      NOT AVBL
ORANGEBURG     MOSUNNY   63  46  54 NE8       29.87S
BARNWELL       FAIR      64  50  59 NE7       29.89R
AIKEN          FAIR      63  43  48 N9        29.92S
MANNING        FAIR      63  36  36 N10       29.87S
COLUMBIA       PTSUNNY   64  44  48 VRB6      29.88R
SUMTER         MOSUNNY   62  47  58 NW8       29.87R
FLORENCE       SUNNY     63  46  54 N8        29.87R
MYRTLE BEACH   NOT AVBL
N MYRTLE BEACH SUNNY     63  46  54 VRB7      29.83F

$$

GAZ063-065-086>088-099>101-113>116-118-119-134>141-150-271600-
...SOUTHEAST GEORGIA...

CITY           SKY/WX    TMP DP  RH WIND       PRES   REMARKS
SAVANNAH ARPT  PTSUNNY   63  54  72 CALM      29.86R
HUNTER AAF     CLOUDY    64  57  77 N5        29.83S
FORT STEWART   CLOUDY    63  55  77 N6        29.84S
STATESBORO       N/A     65  51  60 NE7       29.88R
SYLVANIA       MOSUNNY   65  53  65 NE7       29.89R
CLAXTON        FAIR      64  54  68 N3        29.87S

...CSRA...CENTRAL AND FAR SOUTHEAST GEORGIA...

CITY           SKY/WX    TMP DP  RH WIND       PRES   REMARKS
THOMSON        MOSUNNY   67  49  52 NE6       29.93F
AUGUSTA-BUSH   MOSUNNY   64  50  60 N8        29.89S
AUGUSTA-DANIEL MOSUNNY   66  47  50 N9        29.90S
SWAINSBORO     NOT AVBL
VIDALIA        MOSUNNY   66  55  68 N6        29.87R
EASTMAN        FAIR      69  55  61 NE5       29.89F
HAZLEHURST     PTSUNNY   65  58  80 CALM      29.86S
ALMA           CLOUDY    63  58  83 N7        29.86R
WAYCROSS       CLOUDY    69  65  86 N3        29.84S
JESUP          CLOUDY    66  63  88 N5        29.86R
BAXLEY         CLOUDY    64  59  82 N5        29.86R
BRUNSWICK      CLOUDY    68  63  83 N7        29.85R
SAINT SIMONS   CLOUDY    68  62  81 NE8       29.83S

$$

SCZ027-028-034-036>038-045-046-048>050-GAZ119-141-271600-
...LAKE AND SUPPLEMENTAL COASTAL OBSERVATIONS...

STATION/POSITION TIME  TEMP    WIND        PRES    WAVE   SWELL
                       AIR SEA DIR/SP/G            HT/PER HT/PER/DIR
                 (UTC) (F)     (DEG/KT/KT) (MB)    (FT/S) (FT/S/D)
UPR LAKE MARION  NOT AVBL
WINYAH BAY       1445   59     320/  6     1009.0S
LAKE MURRAY      1400   59     250/  3/  4 1011.2R
ACE BASIN NERRS  NOT AVBL
FORT PULASKI     1400   59 70  330/  4/  5 1011.2R
SAPELO ISLAND    1500   63      10/  8     1010.0S

$$

ANZ835-935-AMZ111-154-330-350-352-354-370-450-454-472-271600-
...C-MAN AND BUOY OBSERVATIONS...

STATION/POSITION TIME  TEMP    WIND        PRES    WAVE   SWELL
                       AIR SEA DIR/SP/G            HT/PER HT/PER/DIR
                 (UTC) (F)     (DEG/KT/KT) (MB)    (FT/S) (FT/S/D)
BUOY 41004       1450   61 71  350/ 10/ 14 1009.9R   3/ 6   3/ 6
BUOY 41008       1450   62 70   30/ 12/ 14 1010.3S   4/ 6   3/ 70/ 6
FOLLY BEACH CMAN 1500   61     350/  8/ 11 1010.9R
CAPERS NEARSHORE 1408   57     360/  6/ 10 1010.8R
FRIPP NEARSHORE  1400   60      30/  8/ 10 1010.3R


STATION/POSITION TIME  TEMP    WIND        PRES    WAVE   SWELL
                       AIR SEA DIR/SP/G            HT/PER HT/PER/DIR
                 (UTC) (F)     (DEG/KT/KT) (MB)    (FT/S) (FT/S/D)
5E ST. MARYS GA  1421      69                N/A     3/ 4
FRYING PAN BUOY  1450   60 70  360/ 14/ 17 1009.8R   3/ 6   2/110/ 6
BUOY 41025       1450   58 74  350/ 17/ 21 1008.2R   6/10   5/ 70/10
CAPE LOOKOUT NC  1500   60     330/  9/ 11 1009.0R
BUOY 41002       1450   67 71  310/  8/  8 1006.5R   5/ 7   5/270/ 7
BUOY 41010       1420   80 79  290/ 17/ 19 1008.4R
ST AUGUSTINE FL  1500   69 68   10/ 14/ 15 1009.7F


$$



USA.gov is the U.S. government's official web portal to all federal, state and local government web resources and services.